Flag for U.S.A. Weather past 2 weeks in Mason, Ohio, U.S.A.

Now
32 °F

Sunny.


Feels Like: 27 °F
Forecast: 20 / 31 °F
Wind: 5 mph from Northeast

Location: Butler County Regional Airport

Current Time: Mar 2, 2015 at 3:12:42 PM

Latest Report: Mar 2, 2015 at 2:53 PM


Visibility: 10 mi

Pressure: 30.50 "Hg

Humidity: 50%

Dew point: 15 °F

Location of MasonLocation

Historic Weather in Mason — Graph

°F

Mason temperature yesterday

Maximum temperature yesterday: 33 °F (at 12:53 PM)
Minimum temperature yesterday: 22 °F (at 12:53 AM)
Average temperature yesterday: 31 °F

Past Weeks' High & Low Weather Summary

 TemperatureHumidityPressure
High35 °F (Feb 25, 2:53 PM)100% (Mar 1, 5:53 PM)30.80 "Hg (Mar 1, 5:53 PM)
Low-19 °F (Feb 24, 4:53 AM)32% (Feb 15, 4:53 PM)29.82 "Hg (Feb 18, 6:01 AM)
Average16 °F68%30.29 "Hg
* Reported Feb 15 1:53 PM — Mar 2 1:53 PM, Mason, Weather by CustomWeather, © 2015

Note: Actual official high and low records may vary slightly from our data, if they occured in-between our weather recording intervals... More about our weather records

Advertising

Mason weather history for previous 24 hours

 ConditionsComfort  
Time TempWeatherWind HumidityBarometerVisibility
1:53 PM
Mon, Mar 2
32 °FSunny.3 mph50%30.53 "Hg10 mi
12:53 PM31 °FSunny.No wind52%30.56 "Hg10 mi
11:53 AM29 °FSunny.3 mph58%30.58 "Hg10 mi
10:53 AM25 °FSunny.3 mph63%30.58 "Hg9 mi
9:53 AM24 °FSunny.5 mph65%30.58 "Hg9 mi
8:53 AM22 °FSunny.No wind72%30.56 "Hg8 mi
7:53 AM20 °FSunny.3 mph74%30.54 "Hg7 mi
6:53 AM22 °FClear.8 mph75%30.52 "Hg9 mi
5:53 AM21 °FClear.7 mph81%30.49 "Hg10 mi
4:53 AM22 °FClear.6 mph78%30.46 "Hg10 mi
3:53 AM23 °FClear.8 mph78%30.45 "Hg10 mi
2:53 AM24 °FClear.12 mph77%30.42 "Hg10 mi
1:53 AM27 °FOvercast.12 mph75%30.41 "Hg10 mi
12:53 AM30 °FOvercast.15 mph79%30.38 "Hg10 mi
11:53 PM
Sun, Mar 1
32 °FOvercast.9 mph85%30.36 "Hg9 mi
11:01 PM33 °FOvercast.10 mph85%30.34 "Hg7 mi
9:53 PM33 °FMostly cloudy.6 mph92%30.33 "Hg7 mi
8:53 PM33 °FFog.No wind96%30.32 "Hg2 mi
7:53 PM33 °FFog.3 mph96%30.31 "Hg1 mi
6:53 PM33 °FLight snow. Fog.3 mph100%30.31 "Hg1 mi
5:53 PM33 °FLight snow. Fog.No wind100%30.30 "Hg1 mi
5:03 PM33 °FFog.No wind96%30.28 "Hg1 mi
4:01 PM33 °FLight rain. Fog.No wind96%30.27 "Hg2 mi
Weather by CustomWeather, © 2015

See weather overviewHow to use our weather pages